Gibraltar, Gibraltar

7:49 AM CEST on March 30, 2017 (GMT +0200)
Gibraltar Air Base

Weather History for LXGB - February, 2014

Change the Weather History Date:

Saturday, February 22, 2014

  Actual Average Record
Temperature  
Mean Temperature 54 °F -  
Max Temperature 60 °F 62 °F 69 °F (2000)
Min Temperature 48 °F 52 °F 46 °F (2005)
Degree Days  
Heating Degree Days 11    
Growing Degree Days 4 (Base 50)    
Moisture  
Dew Point 38 °F    
Average Humidity 49    
Maximum Humidity 71    
Minimum Humidity 20    
Precipitation  
Precipitation 0.00 in - - ()
Sea Level Pressure  
Sea Level Pressure 30.29 in    
Wind  
Wind Speed 10 mph ()    
Max Wind Speed 17 mph    
Max Gust Speed -    
Visibility 11.5 miles    
Events      
Averages and records for this station are not official NWS values.
T = Trace of Precipitation, MM = Missing Value Source: Averaged Metar Reports

Daily Weather History Graph

Daily Weather History Graph

Search for Another Location

Airport or City:

Trip Planner

Search our weather history database for the weather conditions in past years. The results will help you decide how hot, cold, wet, or windy it might be!

Date:

Astronomy

Feb. 22, 2014 Rise Set
Actual Time 8:00 AM CET 7:09 PM CET
Civil Twilight 7:34 AM CET 7:35 PM CET
Nautical Twilight 7:05 AM CET 8:05 PM CET
Astronomical Twilight 6:35 AM CET 8:35 PM CET
Moon 1:37 AM CET (2/22) 12:13 PM CET (2/22)
Length of Visible Light 12h 00m
Length of Day
11h 08m
Waning Gibbous, 53% of the Moon is Illuminated
Feb 22
Waning Gibbous
Feb 22
Last Quarter
Mar 1
New
Mar 8
First Quarter
Mar 16
Full

Hourly Weather History & Observations

Time (CET) Temp. Dew Point Humidity Pressure Visibility Wind Dir Wind Speed Gust Speed Precip Events Conditions
12:00 AM 53 °F 40 °F 50% 30.28 in 12 mi West 13.8 mph - -  
12:50 AM 53.6 °F 41.0 °F 62% 30.27 in 6.2 mi West 15.0 mph - N/A   Unknown
1:00 AM 53 °F 40 °F 51% 30.29 in 12 mi West 15.0 mph - -  
1:50 AM 51.8 °F 41.0 °F 67% 30.27 in 6.2 mi West 16.1 mph - N/A   Unknown
2:00 AM 52 °F 41 °F 55% 30.29 in 12 mi West 16.1 mph - -  
2:50 AM 51.8 °F 39.2 °F 62% 30.27 in 6.2 mi West 15.0 mph - N/A   Unknown
3:00 AM 51 °F 39 °F 54% 30.28 in 12 mi West 15.0 mph - -  
3:50 AM 51.8 °F 37.4 °F 58% 30.27 in 6.2 mi West 17.3 mph - N/A   Unknown
4:00 AM 51 °F 37 °F 49% 30.28 in 12 mi West 17.3 mph - -  
4:50 AM 50.0 °F 39.2 °F 66% 30.27 in 6.2 mi West 12.7 mph - N/A   Unknown
5:00 AM 50 °F 38 °F 54% 30.29 in 12 mi West 12.7 mph - -  
5:50 AM 50.0 °F 39.2 °F 66% 30.30 in 6.2 mi West 12.7 mph - N/A   Unknown
6:00 AM 49 °F 38 °F 57% 30.30 in 12 mi West 12.7 mph - -  
6:50 AM 48.2 °F 39.2 °F 71% 30.30 in 6.2 mi West 10.4 mph - N/A   Partly Cloudy
7:00 AM 49 °F 38 °F 57% 30.31 in 12 mi West 10.4 mph - -   Scattered Clouds
7:50 AM 48.2 °F 39.2 °F 71% 30.30 in 6.2 mi West 6.9 mph - N/A   Partly Cloudy
8:00 AM 49 °F 39 °F 58% 30.33 in 19 mi West 6.9 mph - -   Scattered Clouds
8:50 AM 48.2 °F 39.2 °F 71% 30.33 in 6.2 mi WNW 6.9 mph - N/A   Partly Cloudy
9:00 AM 48 °F 38 °F 60% 30.33 in 19 mi WNW 6.9 mph - -   Scattered Clouds
9:50 AM 50.0 °F 37.4 °F 62% 30.33 in 6.2 mi WNW 5.8 mph - N/A   Partly Cloudy
10:00 AM 51 °F 37 °F 48% 30.35 in 19 mi WNW 5.8 mph - -   Scattered Clouds
10:50 AM 55.4 °F 33.8 °F 44% 30.36 in 6.2 mi WNW 5.8 mph - N/A   Partly Cloudy
11:00 AM 55 °F 34 °F 32% 30.36 in 19 mi WNW 5.8 mph - -   Scattered Clouds
11:50 AM 59.0 °F 33.8 °F 39% 30.36 in - WNW 6.9 mph - N/A   Clear
12:00 PM 58 °F 33 °F 27% 30.36 in 19 mi WNW 6.9 mph - -  
12:50 PM 59.0 °F 32.0 °F 36% 30.33 in - WSW 5.8 mph - N/A   Clear
1:00 PM 59 °F 33 °F 25% 30.35 in 19 mi WSW 5.8 mph - -  
1:50 PM 59.0 °F 35.6 °F 42% 30.30 in - East 6.9 mph - N/A   Clear
2:00 PM 59 °F 36 °F 29% 30.33 in 19 mi East 6.9 mph - -  
2:50 PM 60.8 °F 37.4 °F 42% 30.27 in - SSW 8.1 mph - N/A   Clear
3:00 PM 60 °F 37 °F 30% 30.30 in 19 mi SSW 8.1 mph - -  
3:50 PM 59.0 °F 37.4 °F 45% 30.27 in 6.2 mi SSW 10.4 mph - N/A   Partly Cloudy
4:00 PM 60 °F 38 °F 32% 30.28 in 16 mi SSW 10.4 mph - -   Scattered Clouds
4:50 PM 60.8 °F 39.2 °F 45% 30.24 in 6.2 mi SSW 6.9 mph - N/A   Partly Cloudy
5:00 PM 60 °F 40 °F 35% 30.26 in 16 mi SSW 6.9 mph - -   Scattered Clouds
5:50 PM 60.8 °F 41.0 °F 48% 30.24 in 6.2 mi SSW 6.9 mph - N/A   Partly Cloudy
6:00 PM 60 °F 41 °F 37% 30.25 in 16 mi SSW 6.9 mph - -   Scattered Clouds
6:50 PM 59.0 °F 30.2 °F 34% 30.24 in - ESE 5.8 mph - N/A   Clear
7:00 PM 60 °F 30 °F 20% 30.25 in 16 mi ESE 5.8 mph - -  
7:50 PM 57.2 °F 35.6 °F 44% 30.24 in - ESE 6.9 mph - N/A   Clear
8:00 PM 57 °F 35 °F 32% 30.25 in 12 mi ESE 6.9 mph - -  
8:50 PM 57.2 °F 42.8 °F 59% 30.24 in 6.2 mi East 6.9 mph - N/A   Unknown
9:00 PM 56 °F 43 °F 51% 30.26 in 12 mi East 6.9 mph - -  
9:50 PM 57.2 °F 41.0 °F 55% 30.24 in - East 10.4 mph - N/A   Clear
10:00 PM 56 °F 40 °F 44% 30.25 in 12 mi East 10.4 mph - -  
10:50 PM 55.4 °F 41.0 °F 58% 30.24 in - East 10.4 mph - N/A   Clear
11:00 PM 56 °F 42 °F 47% 30.25 in 12 mi East 10.4 mph - -  
11:50 PM 55.4 °F 42.8 °F 63% 30.21 in 6.2 mi East 16.1 mph - N/A   Unknown